GW4214 Weather Reports


Display with metric or nautical units.
time (UTC)temp
F
wind
direction
speed
MPH
gust
MPH
rain 1hr
in
rain 24hr
in
rain mn
in
humidity
%
barometer
mb
20260508022008 70 190 0.0 0.0 0.00 0.00 0.00 46 1018.2
20260508021503 71 206 0.0 0.0 0.00 0.00 0.00 45 1018.2
20260508021000 71 209 0.0 0.0 0.00 0.00 0.00 45 1018.2
20260508020457 71 228 0.0 0.0 0.00 0.00 0.00 44 1018.6
20260508015954 70 215 0.0 0.0 0.00 0.00 0.00 46 1018.2
20260508015452 71 214 0.0 0.0 0.00 0.00 0.00 45 1018.6
20260508014949 70 198 0.0 0.0 0.00 0.00 0.00 45 1017.9
20260508014445 71 216 0.0 0.0 0.00 0.00 0.00 45 1018.6
20260508013942 71 196 0.0 0.0 0.00 0.00 0.00 45 1018.6
20260508013437 71 200 0.0 0.0 0.00 0.00 0.00 44 1018.6
20260508012935 71 211 0.0 0.0 0.00 0.00 0.00 45 1018.6
20260508012432 71 217 0.0 0.0 0.00 0.00 0.00 45 1018.6
20260508011929 71 278 1.0 3.0 0.00 0.00 0.00 44 1018.6
20260508011427 71 197 0.0 0.0 0.00 0.00 0.00 44 1018.9
20260508010924 71 201 0.0 0.0 0.00 0.00 0.00 44 1018.6
20260508010421 71 255 0.0 0.0 0.00 0.00 0.00 44 1018.9
20260508005918 71 209 0.0 0.0 0.00 0.00 0.00 44 1018.9
20260508005415 72 222 0.0 0.0 0.00 0.00 0.00 44 1018.9
20260508004911 72 222 0.0 0.0 0.00 0.00 0.00 43 1018.9
20260508004408 72 201 0.0 0.0 0.00 0.00 0.00 43 1018.9
20260508003904 72 148 3.0 5.0 0.00 0.00 0.00 43 1018.6
20260508003401 73 109 0.0 0.0 0.00 0.00 0.00 42 1018.9
20260508002859 73 167 1.0 1.0 0.00 0.00 0.00 42 1018.9
20260508002355 73 202 0.0 0.0 0.00 0.00 0.00 43 1019.3
20260508001851 74 189 1.0 3.0 0.00 0.00 0.00 39 1019.3
20260508001347 74 89 2.0 3.0 0.00 0.00 0.00 39 1018.9
20260508000844 75 14 4.0 6.0 0.00 0.00 0.00 39 1018.9
20260508000342 75 343 0.0 0.0 0.00 0.00 0.00 40 1019.3
20260507235837 76 166 0.0 0.0 0.00 0.00 0.00 37 1018.9
20260507235335 77 232 1.0 1.0 0.00 0.00 0.00 38 1018.9
20260507234831 77 54 0.0 0.0 0.00 0.00 0.00 37 1018.9
20260507234328 76 217 0.0 0.0 0.00 0.00 0.00 38 1019.3
20260507233824 76 209 0.0 0.0 0.00 0.00 0.00 38 1019.3
20260507233322 75 221 0.0 0.0 0.00 0.00 0.00 37 1019.3
20260507232820 76 266 1.0 1.0 0.00 0.00 0.00 35 1019.6
20260507232316 76 224 0.0 0.0 0.00 0.00 0.00 36 1019.6
20260507231813 75 287 1.0 2.0 0.00 0.00 0.00 36 1019.9
20260507231310 75 234 0.0 0.0 0.00 0.00 0.00 37 1019.6
20260507230806 75 282 4.0 6.0 0.00 0.00 0.00 35 1019.9
20260507230304 74 206 0.0 0.0 0.00 0.00 0.00 37 1019.6
20260507225803 75 206 0.0 0.0 0.00 0.00 0.00 38 1019.9
20260507225259 76 202 0.0 0.0 0.00 0.00 0.00 37 1019.6
20260507224755 76 184 0.0 0.0 0.00 0.00 0.00 36 1020.3
20260507224252 74 278 1.0 2.0 0.00 0.00 0.00 37 1019.9
20260507223749 75 219 0.0 1.0 0.00 0.00 0.00 36 1020.3
20260507223245 75 258 0.0 0.0 0.00 0.00 0.00 35 1020.3
20260507222743 73 225 0.0 0.0 0.00 0.00 0.00 37 1019.9
20260507222238 73 245 0.0 2.0 0.00 0.00 0.00 39 1020.3
20260507221736 73 4 1.0 2.0 0.00 0.00 0.00 38 1020.3
20260507221232 73 294 2.0 2.0 0.00 0.00 0.00 39 1020.3
20260507220728 72 310 4.0 5.0 0.00 0.00 0.00 41 1020.6
20260507220227 72 348 3.0 3.0 0.00 0.00 0.00 42 1020.6
20260507215722 71 220 0.0 0.0 0.00 0.00 0.00 41 1020.9
20260507215220 70 215 2.0 3.0 0.00 0.00 0.00 43 1020.6
20260507214717 71 252 3.0 3.0 0.00 0.00 0.00 43 1020.6
20260507214214 73 239 0.0 0.0 0.00 0.00 0.00 40 1020.6
20260507213709 73 289 1.0 2.0 0.00 0.00 0.00 40 1020.6
20260507213207 71 245 2.0 2.0 0.00 0.00 0.00 42 1020.9
20260507212703 72 202 0.0 0.0 0.00 0.00 0.00 44 1020.9
20260507212200 71 353 3.0 5.0 0.00 0.00 0.00 46 1020.9
20260507211657 73 243 0.0 0.0 0.00 0.00 0.00 46 1020.9
20260507211152 72 358 0.0 0.0 0.00 0.00 0.00 48 1020.9
20260507210650 69 213 0.0 1.0 0.00 0.00 0.00 52 1020.9
20260507210146 69 216 1.0 2.0 0.00 0.00 0.00 52 1021.3
20260507205643 69 152 0.0 0.0 0.00 0.00 0.00 54 1021.3
20260507205139 70 261 3.0 5.0 0.00 0.00 0.00 53 1021.3
20260507204636 69 245 1.0 3.0 0.00 0.00 0.00 54 1021.3
20260507204134 69 227 0.0 1.0 0.00 0.00 0.00 54 1021.3
20260507203631 68 190 0.0 0.0 0.00 0.00 0.00 55 1021.6
20260507203129 68 275 4.0 5.0 0.00 0.00 0.00 55 1021.6
20260507202624 66 234 2.0 3.0 0.00 0.00 0.00 59 1021.6
20260507202121 68 218 3.0 5.0 0.00 0.00 0.00 57 1022.0
20260507201616 68 311 2.0 3.0 0.00 0.00 0.00 58 1021.6
20260507201113 70 248 1.0 1.0 0.00 0.00 0.00 56 1022.0
20260507200609 69 203 0.0 0.0 0.00 0.00 0.00 55 1022.0
20260507200105 69 297 1.0 3.0 0.00 0.00 0.00 55 1022.0
20260507195602 69 171 3.0 6.0 0.00 0.00 0.00 56 1022.0
20260507195059 69 17 6.0 7.0 0.00 0.00 0.00 54 1022.0
20260507194555 67 206 0.0 0.0 0.00 0.00 0.00 58 1022.0
20260507194051 68 275 3.0 3.0 0.00 0.00 0.00 62 1022.0
20260507193549 68 224 0.0 0.0 0.00 0.00 0.00 57 1022.0
20260507193046 65 204 0.0 0.0 0.00 0.00 0.00 62 1022.3
20260507192542 66 139 3.0 3.0 0.00 0.00 0.00 62 1022.3
20260507192039 66 194 1.0 2.0 0.00 0.00 0.00 61 1022.3
20260507191534 67 209 0.0 1.0 0.00 0.00 0.00 61 1022.6
20260507191031 67 77 3.0 3.0 0.00 0.00 0.00 59 1022.6
20260507190528 66 224 0.0 0.0 0.00 0.00 0.00 60 1022.6
20260507190027 65 223 1.0 2.0 0.00 0.00 0.00 62 1022.3
20260507185525 64 199 0.0 0.0 0.00 0.00 0.00 63 1022.6
20260507185022 64 315 2.0 2.0 0.00 0.00 0.00 66 1022.6
20260507184520 64 34 1.0 2.0 0.00 0.00 0.00 65 1022.6
20260507184018 62 326 3.0 3.0 0.00 0.00 0.00 67 1022.6
20260507183513 62 125 2.0 3.0 0.00 0.00 0.00 67 1022.6
20260507183011 63 211 3.0 3.0 0.00 0.00 0.00 65 1023.0
20260507182507 64 19 0.0 3.0 0.00 0.00 0.00 65 1023.0
20260507182002 63 210 1.0 1.0 0.00 0.00 0.00 65 1022.6
20260507181459 64 223 0.0 1.0 0.00 0.00 0.00 66 1023.0
20260507180955 63 208 0.0 0.0 0.00 0.00 0.00 67 1023.0
20260507180452 63 217 2.0 5.0 0.00 0.00 0.00 66 1023.0
20260507175948 62 211 0.0 1.0 0.00 0.00 0.00 67 1023.0
20260507175446 62 212 0.0 1.0 0.00 0.00 0.00 68 1023.3
20260507174943 62 12 2.0 2.0 0.00 0.00 0.00 67 1023.0
20260507174440 61 208 0.0 1.0 0.00 0.00 0.00 69 1023.0
20260507173937 60 205 0.0 0.0 0.00 0.00 0.00 69 1023.0
20260507173434 61 329 3.0 3.0 0.00 0.00 0.00 69 1023.0
20260507172931 61 195 0.0 1.0 0.00 0.00 0.00 70 1023.3
20260507172428 62 221 0.0 0.0 0.00 0.00 0.00 66 1023.0
20260507171924 62 210 2.0 2.0 0.00 0.00 0.00 67 1023.0
20260507171420 61 272 1.0 2.0 0.00 0.00 0.00 68 1023.3
20260507170918 60 299 3.0 5.0 0.00 0.00 0.00 69 1023.0
20260507170414 60 19 2.0 3.0 0.00 0.00 0.00 71 1023.0
20260507165910 60 269 6.0 7.0 0.00 0.00 0.00 69 1023.0
20260507165406 60 322 5.0 6.0 0.00 0.00 0.00 69 1023.0
20260507164902 59 210 1.0 1.0 0.00 0.00 0.00 72 1023.3
20260507164400 59 359 2.0 3.0 0.00 0.00 0.00 72 1023.3
20260507163857 59 353 4.0 5.0 0.00 0.00 0.00 72 1023.0
20260507163354 58 234 1.0 2.0 0.00 0.00 0.00 75 1023.3
20260507162851 58 129 0.0 0.0 0.00 0.00 0.00 74 1023.0
20260507162346 59 293 4.0 5.0 0.00 0.00 0.00 73 1023.0
20260507161844 58 219 0.0 0.0 0.00 0.00 0.00 73 1023.3
20260507161340 58 234 1.0 1.0 0.00 0.00 0.00 74 1023.3
20260507160837 58 190 1.0 1.0 0.00 0.00 0.00 74 1023.0
20260507160332 58 81 2.0 3.0 0.00 0.00 0.00 74 1023.3
20260507155829 58 207 0.0 0.0 0.00 0.00 0.00 75 1023.0
20260507155325 57 245 1.0 2.0 0.00 0.00 0.00 75 1023.0
20260507154821 57 350 2.0 3.0 0.00 0.00 0.00 76 1023.3
20260507154319 57 251 1.0 1.0 0.00 0.00 0.00 76 1023.3
20260507153816 57 226 1.0 1.0 0.00 0.00 0.00 76 1023.3
20260507153312 56 224 0.0 0.0 0.00 0.00 0.00 77 1023.0
20260507152809 56 218 0.0 1.0 0.00 0.00 0.00 78 1023.7
20260507152306 56 278 2.0 3.0 0.00 0.00 0.00 78 1023.0
20260507151800 56 240 2.0 3.0 0.00 0.00 0.00 77 1023.7
20260507151257 55 175 1.0 1.0 0.00 0.00 0.00 78 1023.7
20260507150754 55 357 3.0 5.0 0.00 0.00 0.00 78 1023.3
20260507150251 55 222 1.0 2.0 0.00 0.00 0.00 78 1023.3
20260507145747 55 241 1.0 1.0 0.00 0.00 0.00 79 1023.3
20260507145244 55 255 2.0 2.0 0.00 0.00 0.00 79 1023.3
20260507144741 55 241 0.0 1.0 0.00 0.00 0.00 79 1023.3
20260507144238 55 306 2.0 2.0 0.00 0.00 0.00 79 1023.3
20260507143735 55 218 0.0 1.0 0.00 0.00 0.00 79 1023.3
20260507143232 55 75 2.0 3.0 0.00 0.00 0.00 79 1023.3
20260507142728 55 241 2.0 3.0 0.00 0.00 0.00 79 1023.3
20260507142225 55 337 3.0 5.0 0.00 0.00 0.00 80 1023.3
20260507141721 55 241 3.0 5.0 0.00 0.00 0.00 80 1023.0
20260507141218 54 217 0.0 1.0 0.00 0.00 0.00 80 1023.0
20260507140714 54 218 1.0 1.0 0.00 0.00 0.00 80 1023.0
20260507140212 54 218 0.0 0.0 0.00 0.00 0.00 81 1023.0
20260507135708 54 225 1.0 2.0 0.00 0.00 0.00 81 1023.0
20260507135206 54 234 1.0 1.0 0.00 0.00 0.00 81 1023.0
20260507134702 54 219 0.0 1.0 0.00 0.00 0.00 82 1023.0
20260507134158 54 217 0.0 0.0 0.00 0.00 0.00 82 1023.0
20260507133655 54 219 0.0 0.0 0.00 0.00 0.00 82 1022.6
20260507133152 54 235 1.0 1.0 0.00 0.00 0.00 82 1023.0
20260507132649 54 228 0.0 1.0 0.00 0.00 0.00 83 1022.6
20260507132145 54 177 0.0 1.0 0.00 0.00 0.00 83 1023.0
20260507131643 54 216 0.0 0.0 0.00 0.00 0.00 83 1023.0
20260507131140 54 274 2.0 2.0 0.00 0.00 0.00 83 1023.0
20260507130636 54 219 0.0 0.0 0.00 0.00 0.00 83 1023.0
20260507130134 54 225 1.0 1.0 0.00 0.00 0.00 83 1023.0
20260507125633 54 219 1.0 1.0 0.00 0.00 0.00 82 1023.0
20260507125130 54 238 1.0 1.0 0.00 0.00 0.00 83 1023.0
20260507124626 54 221 0.0 1.0 0.00 0.00 0.00 83 1023.0
20260507124124 54 225 0.0 1.0 0.00 0.00 0.00 82 1023.0
20260507123622 54 230 0.0 0.0 0.00 0.00 0.00 83 1023.0
20260507123118 54 217 0.0 0.0 0.00 0.00 0.00 83 1023.0
20260507122614 54 231 1.0 1.0 0.00 0.00 0.00 82 1023.0
20260507122110 54 219 0.0 0.0 0.00 0.00 0.00 82 1023.3
20260507121606 54 218 0.0 0.0 0.00 0.00 0.00 82 1023.3
20260507121102 54 227 1.0 1.0 0.00 0.00 0.00 82 1023.0
20260507120558 54 221 1.0 1.0 0.00 0.00 0.00 83 1023.3
20260507120055 54 242 1.0 1.0 0.00 0.00 0.00 84 1023.3
20260507115551 54 251 1.0 2.0 0.00 0.00 0.00 85 1023.3
20260507115047 54 215 0.0 1.0 0.00 0.00 0.00 87 1023.3
20260507114543 54 224 1.0 1.0 0.00 0.00 0.00 87 1023.3
20260507114041 54 216 0.0 0.0 0.00 0.00 0.00 87 1023.3
20260507113537 54 247 2.0 2.0 0.00 0.00 0.00 87 1023.3
20260507113035 54 219 0.0 0.0 0.00 0.00 0.00 87 1023.0
20260507112532 54 277 3.0 3.0 0.00 0.00 0.00 87 1023.3
20260507112029 54 233 1.0 1.0 0.00 0.00 0.00 87 1023.7
20260507111526 54 231 1.0 1.0 0.00 0.00 0.00 87 1023.7
20260507111022 54 257 2.0 2.0 0.00 0.00 0.00 87 1023.3
20260507110519 54 211 0.0 0.0 0.00 0.00 0.00 87 1023.7
20260507110015 54 252 1.0 1.0 0.00 0.00 0.00 86 1023.3
20260507105513 54 218 0.0 1.0 0.00 0.00 0.00 87 1023.7
20260507105009 54 241 1.0 1.0 0.00 0.00 0.00 86 1023.3
20260507104506 54 242 3.0 3.0 0.00 0.00 0.00 86 1023.3
20260507104002 54 249 2.0 2.0 0.00 0.00 0.00 86 1023.3
20260507103458 54 299 4.0 6.0 0.00 0.00 0.00 86 1023.7
20260507102954 54 237 1.0 1.0 0.00 0.00 0.00 86 1023.3
20260507102452 54 278 2.0 2.0 0.00 0.00 0.00 86 1023.7
20260507101948 55 249 1.0 1.0 0.00 0.00 0.00 86 1023.7
20260507101443 55 221 0.0 1.0 0.00 0.00 0.00 86 1023.7
20260507100940 55 224 1.0 1.0 0.00 0.00 0.00 86 1023.7
20260507100437 55 237 1.0 2.0 0.00 0.00 0.00 86 1024.0
20260507095935 55 237 2.0 2.0 0.00 0.00 0.00 86 1024.0
20260507095433 55 221 0.0 0.0 0.00 0.00 0.00 86 1024.0
20260507094930 55 259 1.0 2.0 0.00 0.00 0.00 86 1023.7
20260507094426 55 247 3.0 3.0 0.00 0.00 0.00 86 1023.7
20260507093923 55 235 0.0 1.0 0.00 0.00 0.00 86 1024.0
20260507093421 55 223 1.0 1.0 0.00 0.00 0.00 86 1024.0
20260507092919 55 242 3.0 3.0 0.00 0.00 0.00 86 1024.0
20260507092415 55 222 1.0 2.0 0.00 0.00 0.00 86 1024.0
20260507091912 55 234 1.0 1.0 0.00 0.00 0.00 86 1024.0
20260507091408 55 235 1.0 1.0 0.00 0.00 0.00 86 1024.0
20260507090904 55 228 1.0 1.0 0.00 0.00 0.00 86 1024.0
20260507090400 55 229 1.0 1.0 0.00 0.00 0.00 86 1024.0
20260507085857 55 220 0.0 0.0 0.00 0.00 0.00 86 1024.0
20260507085354 55 230 1.0 2.0 0.00 0.00 0.00 86 1024.3
20260507084851 55 230 1.0 1.0 0.00 0.00 0.00 86 1024.3
20260507084348 55 219 0.0 0.0 0.00 0.00 0.00 86 1024.0
20260507083845 55 223 0.0 0.0 0.00 0.00 0.00 86 1024.0
20260507083341 55 214 0.0 0.0 0.00 0.00 0.00 86 1024.0
20260507082838 54 216 1.0 1.0 0.00 0.00 0.00 86 1024.0
20260507082333 55 205 1.0 1.0 0.00 0.00 0.00 86 1024.0
20260507081831 55 207 0.0 0.0 0.00 0.00 0.00 86 1024.0
20260507081326 55 211 0.0 0.0 0.00 0.00 0.00 86 1024.0
20260507080823 54 218 0.0 1.0 0.00 0.00 0.00 86 1024.0
20260507080320 54 215 0.0 1.0 0.00 0.00 0.00 86 1024.0
20260507075815 54 213 0.0 0.0 0.00 0.00 0.00 86 1024.0
20260507075311 54 200 1.0 2.0 0.00 0.00 0.00 86 1024.3
20260507074808 54 203 1.0 1.0 0.00 0.00 0.00 86 1024.0
20260507074306 54 200 1.0 1.0 0.00 0.00 0.00 86 1024.0
20260507073803 54 211 0.0 0.0 0.00 0.00 0.00 86 1024.0
20260507073259 54 199 1.0 1.0 0.00 0.00 0.00 86 1024.3
20260507072757 54 215 1.0 1.0 0.00 0.00 0.00 86 1024.3
20260507072254 54 219 0.0 0.0 0.00 0.00 0.00 86 1024.0
20260507071751 54 210 1.0 2.0 0.00 0.00 0.00 86 1024.0
20260507071247 54 220 1.0 1.0 0.00 0.00 0.00 86 1024.3
20260507070745 54 218 1.0 2.0 0.00 0.00 0.00 86 1024.0
20260507070241 54 214 0.0 0.0 0.00 0.00 0.00 86 1024.0
20260507065738 54 217 2.0 2.0 0.00 0.00 0.00 85 1024.0
20260507065235 54 208 1.0 2.0 0.00 0.00 0.00 85 1024.3
20260507064732 54 214 0.0 0.0 0.00 0.00 0.00 85 1024.0
20260507064231 54 215 0.0 0.0 0.00 0.00 0.00 85 1024.0
20260507063728 54 217 0.0 0.0 0.00 0.00 0.00 85 1024.0
20260507063225 54 207 0.0 0.0 0.00 0.00 0.00 85 1024.0
20260507062722 54 194 1.0 1.0 0.00 0.00 0.00 85 1024.0
20260507062219 54 210 1.0 1.0 0.00 0.00 0.00 84 1024.0
20260507061717 54 202 1.0 1.0 0.00 0.00 0.00 84 1024.0
20260507061215 54 207 0.0 0.0 0.00 0.00 0.00 84 1024.0
20260507060713 54 206 0.0 1.0 0.00 0.00 0.00 84 1024.3
20260507060208 55 208 0.0 1.0 0.00 0.00 0.00 84 1024.0
20260507055705 55 212 0.0 0.0 0.00 0.00 0.00 84 1024.0
20260507055200 55 214 1.0 1.0 0.00 0.00 0.00 84 1024.0
20260507054657 55 207 0.0 0.0 0.00 0.00 0.00 83 1024.0
20260507054154 55 216 0.0 0.0 0.00 0.00 0.00 83 1024.0
20260507053652 55 218 0.0 0.0 0.00 0.00 0.00 83 1024.0
20260507053149 55 219 0.0 1.0 0.00 0.00 0.00 82 1024.0
20260507052648 55 244 1.0 1.0 0.00 0.00 0.00 82 1024.0
20260507052143 55 220 0.0 0.0 0.00 0.00 0.00 82 1024.0
20260507051641 55 235 2.0 2.0 0.00 0.00 0.00 82 1024.0
20260507051138 55 243 2.0 2.0 0.00 0.00 0.00 82 1024.0
20260507050635 55 218 0.0 1.0 0.00 0.00 0.00 82 1024.0
20260507050132 55 217 0.0 0.0 0.00 0.00 0.00 83 1024.0
20260507045629 55 241 1.0 1.0 0.00 0.00 0.00 82 1024.0
20260507045125 55 215 0.0 1.0 0.00 0.00 0.00 82 1024.0
20260507044622 55 234 1.0 1.0 0.00 0.00 0.00 83 1024.0
20260507044119 55 259 3.0 5.0 0.00 0.00 0.00 83 1024.0
20260507043615 55 224 0.0 1.0 0.00 0.00 0.00 83 1024.0
20260507043112 55 220 0.0 0.0 0.00 0.00 0.00 82 1023.7
20260507042608 55 223 2.0 2.0 0.00 0.00 0.00 82 1024.0
20260507042103 56 263 2.0 2.0 0.00 0.00 0.00 82 1023.7
20260507041600 56 220 1.0 1.0 0.00 0.00 0.00 82 1023.7
20260507041057 56 291 3.0 3.0 0.00 0.00 0.00 81 1023.3
20260507040554 56 278 2.0 2.0 0.00 0.00 0.00 81 1023.7
20260507040050 57 238 1.0 1.0 0.00 0.00 0.00 81 1023.7
20260507035546 57 233 1.0 1.0 0.00 0.00 0.00 81 1023.3
20260507035043 57 227 1.0 1.0 0.00 0.00 0.00 80 1023.3
20260507034539 57 282 3.0 3.0 0.00 0.00 0.00 80 1023.0
20260507034038 57 279 2.0 3.0 0.00 0.00 0.00 80 1023.3
20260507033535 58 240 1.0 2.0 0.00 0.00 0.00 80 1023.3
20260507033032 58 248 2.0 2.0 0.00 0.00 0.00 79 1023.0
20260507032529 58 326 3.0 3.0 0.00 0.00 0.00 79 1023.0
20260507032025 59 260 3.0 3.0 0.00 0.00 0.00 78 1023.0
20260507031521 59 304 4.0 5.0 0.00 0.00 0.00 78 1022.6
20260507031019 60 251 1.0 2.0 0.00 0.00 0.00 77 1023.0
20260507030516 60 235 2.0 2.0 0.00 0.00 0.00 77 1023.0
20260507030014 60 262 2.0 2.0 0.00 0.00 0.00 76 1022.6
20260507025511 61 254 2.0 2.0 0.00 0.00 0.00 75 1022.6
20260507025008 61 218 0.0 0.0 0.00 0.00 0.00 75 1022.6
20260507024506 61 302 5.0 6.0 0.00 0.00 0.00 74 1022.6
20260507024001 61 278 4.0 6.0 0.00 0.00 0.00 74 1022.6
20260507023458 62 280 7.0 10.0 0.00 0.00 0.00 73 1022.3
20260507022955 62 245 1.0 2.0 0.00 0.00 0.00 72 1022.6
20260507022452 63 244 4.0 5.0 0.00 0.00 0.00 72 1022.6